Terug naar catalogus

SL-12 DEB

LostHEO
NORAD 29441·DEBRIS·🇷🇺 Russia

Gelanceerd May 31, 1989 vanaf Baikonur Cosmodrome

Loading…

Volgende Passages (komende 24 uur)

TLE

VerouderdSource: Space-Track

Epoch: Jul 20, 2026, 22:41 UTC

1 29441U 89039CQ  26201.94566517  .01718752  00000-0  21260+0 0  9994
2 29441  63.9677 327.2942 2502450 151.2005 225.3784 10.18490670500890

Volg SL-12 DEB in realtime met AllMySat

Download on the App Store